STARLINK-1602, 46121

Orbit data source: Space-Track

STARLINK-1602, 46121 is a payload satellite owned by SpaceX/Seattle (US) in LEO that was launched on Tue, 18 Aug 2020 UTC via an FALCON 9 launch vehicle from the Air Force Eastern Test Range (AFETR). Payloads include a variety of satellites, spacecraft, and rockets equipped with specific instruments for various scientific and technological missions. These include communications satellites like Starlink; space stations such as the ISS; scientific satellites like the Hubble; Earth observation satellites from companies like Planet Labs, Umbra, and HawkEye 360; GPS; miniature CubeSats for education and research; and military/defense satellites.

Loading next visibility...
STARLINK-1602 details
Identifier
46121, 2020-057E
Orbit
LEO
Last TLE update12 hours ago
Origin
Flag of USSpaceX/Seattle (US)
ManufacturerSpaceX/Seattle
MissionPartially operational Commercial Communications
Bus & MotorSTARLINK, Unknown motor
Mass260 kg wet, ~248 kg dry
Launch date (UTC)
2020-08-18 (4 years ago)
Launch vehicle
FALCON 9
Launch site
Air Force Eastern Test Range (AFETR)
Object type
Payload
Rocket body
Debris
Shape & HBRBox + 1 Pan, 8.86 m
Radar Cross Section13.562 m², Large (>1 m²)

Expand to show TLE details & history

TLE from 12 hours ago
0 STARLINK-1602
1 46121U 20057E   24339.91668981  .01239328  00000-0  72287-2 0  9993
2 46121  53.0522 193.1979 0000122  86.7017  80.1241 15.75351301237814
Epoch: 2024-12-04T22:00Z
Definitive object data (Epoch: 2024-12-04T22:00:01.999Z)
Latitude10.47894°
Longitude-38.96662°
Altitude343.766 km
Speed7.705 km/s
True Right ascension00h 20m 59s
True Declination10° 24' 50"
Sunlit
Object was in full shadow at TLE epoch
Visualization TLE readout
Latitude13.11865°
Longitude-43.58146°
Altitude340.464 km
Speed7.707 km/s
Apparent Right ascension22h 23m 46s
Apparent Declination-14° 19' 08"
Sunlit
Object is in full shadow
Visualization observer readout
Local Sidereal Time08:08:06
Azimuth301.108° NW
Elevation-50.841°
Doppler factor1
Orbital elements
Apogee altitude343.993 km
Perigee altitude343.829 km
Semi-major axis6,722.048 km
Eccentricity0.0000122
Inclination53.0522°
RAAN193.1979°
Arg. of periapsis86.7017°
True anomaly80.12548°
Mean anomaly80.1241°
Eccentric anomaly80.12479°
Mean motion3.93814 °/min
BSTAR0.0072287
Orbital period91.41 mins
Loading maneuver chart data...
Loading historical data...
Loading historical data...
Loading historical data...
Loading historical data...
Loading historical data...
Loading historical data...
Loading historical data...

STARLINK-1602 Visibility forecast

Observer location: undefined°, undefined

Span
Click to sort rows by Start time (UTC) header in descending order
Start Az.
Max El. time (UTC)
Max El. Az.
Max El.
End time (UTC)
End Az.
5 mins2024-12-05 17:15:45.564Z234.044° WSW2024-12-05 17:18:45.564Z26.043° NE41.112°2024-12-05 17:20:45.564Z46.879° ENE
5 mins2024-12-05 23:38:45.564Z317.86° NNW2024-12-05 23:40:45.564Z358.329° N38.549°2024-12-05 23:43:45.564Z119.044° SE
|